Location: B?jaj?g
(11.7167°N, 92.6667°E)
Time: 23:22:21
(UTC+00:00)

Cosmos 1844 Rocket - Pass Details

Date: 18 September 2020
Orbit: 823 x 846 km, 71.0° (Epoch: 31 October)

Event Time Altitude Azimuth Distance (km) Brightness Sun altitude
Rises 12:40:31 0° 185° (S) 3,349 5.8 -13.7°
Reaches altitude 10° 12:43:00 10° 180° (S) 2,415 5.0 -14.3°
Maximum altitude 12:48:21 52° 105° (ESE) 1,011 2.7 -15.6°
Drops below altitude 10° 12:53:42 10° 29° (NNE) 2,415 4.8 -16.9°
Sets 12:56:11 0° 25° (NNE) 3,349 5.6 -17.5°
